Humidity-temperature Sensor

Selected Measurement Type: Relative Humidity

 
Relative Humidity [%]     6 entries per hour
Showing data from 5/27/2018 (00:00:00 Z) to 5/20/2018 (00:01:00 Z)
Previous Next [ Day | 3-Days | 7-Days ]
First Last
Prev [ Day | 3-Days | 7-Days ] Next
First Last

Start Time:     :
End Time:     :     
Time (in GMT) :00 :50 :40 :30 :20 :10
Previous Next [ Day | 3-Days | 7-Days ]
First Last
Prev [ Day | 3-Days | 7-Days ] Next
First Last


123 => good data
MM => data is determined as missing
-- => data not received/configured
Back to Top Back to Top
5/27/2018 00:00 to 23:10 81.84 81.93 85.45 86.53 86.50 87.50
5/26/2018 23:00 to 22:10 87.25 87.29 88.02 82.42 82.07 81.84
5/26/2018 22:00 to 21:10 81.26 82.26 83.63 84.41 85.34 89.82
5/26/2018 21:00 to 20:10 87.33 81.41 81.49 84.70 82.03 80.12
5/26/2018 20:00 to 19:10 80.27 79.38 80.68 81.47 81.41 81.37
5/26/2018 19:00 to 18:10 84.76 84.41 79.92 79.71 80.52 80.91
5/26/2018 18:00 to 17:10 80.95 80.02 79.23 78.76 81.66 81.49
5/26/2018 17:00 to 16:10 83.44 81.24 81.55 81.28 80.95 81.47
5/26/2018 16:00 to 15:10 81.43 82.24 82.40 82.07 85.34 86.96
5/26/2018 15:00 to 14:10 84.97 86.05 86.17 86.32 85.37 85.72
5/26/2018 14:00 to 13:10 87.93 88.78 83.67 83.31 83.65 82.98
5/26/2018 13:00 to 12:10 82.84 82.03 81.04 83.94 84.95 85.30
5/26/2018 12:00 to 11:10 82.49 83.13 85.10 89.09 83.09 82.36
5/26/2018 11:00 to 10:10 83.85 83.13 82.07 81.26 81.97 82.24
5/26/2018 10:00 to 9:10 82.84 86.36 86.09 86.61 88.47 83.00
5/26/2018 09:00 to 8:10 82.90 82.34 82.30 82.11 81.86 81.80
5/26/2018 08:00 to 7:10 80.66 81.66 83.05 80.73 80.00 82.53
5/26/2018 07:00 to 6:10 82.05 80.99 81.33 80.81 81.91 81.82
5/26/2018 06:00 to 5:10 83.34 81.33 80.89 80.97 79.75 78.86
5/26/2018 05:00 to 4:10 82.69 83.52 82.57 82.03 82.80 84.23
5/26/2018 04:00 to 3:10 84.27 86.09 85.12 84.58 85.08 85.51
5/26/2018 03:00 to 2:10 85.10 85.72 86.92 86.67 85.41 85.45
5/26/2018 02:00 to 1:10 81.97 78.03 79.71 78.61 78.36 78.82
5/26/2018 01:00 to 0:10 79.09 78.96 78.38 78.22 77.62 76.60
5/26/2018 00:00 to 23:10 79.28 78.20 79.36 78.76 78.63 77.49
5/25/2018 23:00 to 22:10 79.30 79.48 79.15 78.61 78.26 78.16
5/25/2018 22:00 to 21:10 79.44 80.31 80.44 81.14 80.66 82.28
5/25/2018 21:00 to 20:10 81.97 82.86 81.33 81.78 82.07 81.89
5/25/2018 20:00 to 19:10 81.45 81.26 81.02 82.42 82.53 82.11
5/25/2018 19:00 to 18:10 83.67 81.76 80.83 82.51 82.07 83.07
5/25/2018 18:00 to 17:10 81.12 81.28 81.18 81.10 79.98 80.48
5/25/2018 17:00 to 16:10 80.68 82.13 80.91 79.73 79.09 80.17
5/25/2018 16:00 to 15:10 81.39 81.55 80.00 80.08 81.04 80.91
5/25/2018 15:00 to 14:10 82.20 82.90 84.06 83.29 82.22 81.60
5/25/2018 14:00 to 13:10 83.94 81.72 81.28 80.21 80.50 80.04
5/25/2018 13:00 to 12:10 79.46 78.32 79.57 78.88 78.43 79.59
5/25/2018 12:00 to 11:10 78.76 80.04 79.73 81.41 80.54 78.67
5/25/2018 11:00 to 10:10 80.66 79.13 80.02 79.13 80.48 79.23
5/25/2018 10:00 to 9:10 80.10 80.70 83.09 82.71 82.24 81.82
5/25/2018 09:00 to 8:10 82.92 81.91 81.66 81.80 81.39 80.31
5/25/2018 08:00 to 7:10 80.91 79.65 79.25 80.33 81.55 82.44
5/25/2018 07:00 to 6:10 85.63 83.36 84.93 84.02 83.52 85.16
5/25/2018 06:00 to 5:10 87.48 85.63 85.66 80.48 81.86 81.78
5/25/2018 05:00 to 4:10 81.99 82.47 81.22 81.16 80.95 81.14
5/25/2018 04:00 to 3:10 80.44 80.19 81.02 79.40 80.81 81.82
5/25/2018 03:00 to 2:10 81.39 81.24 81.18 81.78 82.73 82.28
5/25/2018 02:00 to 1:10 81.20 81.51 82.71 82.55 81.14 80.44
5/25/2018 01:00 to 0:10 80.97 81.60 79.21 77.47 77.41 77.93
5/25/2018 00:00 to 23:10 79.34 78.09 77.22 77.45 78.92 79.28
5/24/2018 23:00 to 22:10 78.86 80.02 79.34 80.23 77.60 78.07
5/24/2018 22:00 to 21:10 79.71 81.55 78.65 79.81 79.57 80.10
5/24/2018 21:00 to 20:10 79.03 79.83 78.96 79.92 78.96 78.14
5/24/2018 20:00 to 19:10 77.58 77.47 77.10 78.07 80.15 81.74
5/24/2018 19:00 to 18:10 82.63 81.95 80.70 80.83 80.35 82.49
5/24/2018 18:00 to 17:10 81.41 81.80 81.20 81.82 81.43 83.34
5/24/2018 17:00 to 16:10 83.17 81.66 81.60 81.33 81.93 81.57
5/24/2018 16:00 to 15:10 80.81 81.43 81.39 82.18 80.85 81.51
5/24/2018 15:00 to 14:10 81.84 80.73 81.49 81.26 80.04 83.19
5/24/2018 14:00 to 13:10 82.80 83.40 83.00 81.43 81.28 80.99
5/24/2018 13:00 to 12:10 82.40 82.13 80.62 81.37 81.57 81.49
5/24/2018 12:00 to 11:10 81.68 80.97 80.33 79.77 80.00 78.51
5/24/2018 11:00 to 10:10 78.70 78.96 75.98 74.74 77.02 78.94
5/24/2018 10:00 to 9:10 79.38 78.20 76.33 79.46 79.90 79.48
5/24/2018 09:00 to 8:10 79.32 78.99 81.35 79.07 78.63 79.09
5/24/2018 08:00 to 7:10 80.12 80.73 80.27 79.13 80.52 79.25
5/24/2018 07:00 to 6:10 79.96 79.90 79.30 79.30 80.64 80.04
5/24/2018 06:00 to 5:10 81.43 81.45 82.18 79.67 78.99 79.13
5/24/2018 05:00 to 4:10 79.59 78.78 79.15 77.93 79.21 77.80
5/24/2018 04:00 to 3:10 79.63 79.32 79.90 80.17 79.21 79.30
5/24/2018 03:00 to 2:10 78.72 78.76 78.34 78.49 77.37 78.94
5/24/2018 02:00 to 1:10 77.95 78.70 76.96 77.83 77.95 77.99
5/24/2018 01:00 to 0:10 78.45 79.46 78.30 78.47 78.99 79.36
5/24/2018 00:00 to 23:10 78.16 78.28 77.56 79.69 79.19 78.20
5/23/2018 23:00 to 22:10 78.07 79.69 79.48 79.63 78.84 79.83
5/23/2018 22:00 to 21:10 79.15 79.52 80.46 79.57 79.57 79.05
5/23/2018 21:00 to 20:10 78.84 78.82 82.18 83.48 81.53 80.79
5/23/2018 20:00 to 19:10 79.90 78.80 80.10 82.65 83.48 85.16
5/23/2018 19:00 to 18:10 83.44 80.17 81.20 83.25 81.66 82.28
5/23/2018 18:00 to 17:10 84.21 83.94 85.57 87.35 87.91 87.33
5/23/2018 17:00 to 16:10 88.91 88.29 89.55 90.61 88.49 82.40
5/23/2018 16:00 to 15:10 79.77 84.23 83.13 84.06 82.88 84.23
5/23/2018 15:00 to 14:10 84.54 83.15 82.96 81.20 80.27 79.48
5/23/2018 14:00 to 13:10 81.55 81.86 81.20 81.57 83.98 83.85
5/23/2018 13:00 to 12:10 84.35 85.28 86.59 87.60 87.91 88.64
5/23/2018 12:00 to 11:10 87.89 87.91 88.74 88.97 88.37 88.25
5/23/2018 11:00 to 10:10 87.54 86.30 86.07 86.82 85.66 85.12
5/23/2018 10:00 to 9:10 86.57 85.74 85.74 85.20 84.21 84.41
5/23/2018 09:00 to 8:10 83.13 88.22 88.93 93.36 92.18 92.99
5/23/2018 08:00 to 7:10 92.10 89.14 89.49 88.27 88.35 89.18
5/23/2018 07:00 to 6:10 90.48 92.20 91.00 86.77 87.04 85.49
5/23/2018 06:00 to 5:10 86.82 86.75 85.90 86.13 86.90 87.67
5/23/2018 05:00 to 4:10 87.50 84.62 78.47 79.59 78.07 78.65
5/23/2018 04:00 to 3:10 77.70 78.34 78.86 77.70 76.83 75.67
5/23/2018 03:00 to 2:10 76.04 75.75 78.22 78.74 77.29 77.47
5/23/2018 02:00 to 1:10 77.74 79.17 79.30 76.56 78.41 79.61
5/23/2018 01:00 to 0:10 79.30 77.33 76.21 76.71 77.31 81.84
5/23/2018 00:00 to 23:10 81.02 77.10 77.72 78.96 78.07 78.12
5/22/2018 23:00 to 22:10 78.99 79.67 79.67 75.17 78.84 79.19
5/22/2018 22:00 to 21:10 80.68 79.79 79.05 77.87 76.85 77.25
5/22/2018 21:00 to 20:10 80.17 82.34 82.76 82.03 83.11 80.19
5/22/2018 20:00 to 19:10 79.67 77.83 79.09 78.65 79.50 78.72
5/22/2018 19:00 to 18:10 78.20 79.40 80.41 79.36 79.88 79.25
5/22/2018 18:00 to 17:10 79.75 77.51 80.12 80.06 84.58 88.54
5/22/2018 17:00 to 16:10 82.05 82.15 81.51 82.03 82.61 81.55
5/22/2018 16:00 to 15:10 81.43 80.64 80.79 80.91 80.10 79.50
5/22/2018 15:00 to 14:10 80.37 80.95 80.23 80.50 79.65 80.39
5/22/2018 14:00 to 13:10 80.31 79.17 80.95 79.34 80.37 79.11
5/22/2018 13:00 to 12:10 78.18 78.99 78.88 78.22 78.38 79.13
5/22/2018 12:00 to 11:10 79.23 77.85 76.56 78.59 77.25 77.62
5/22/2018 11:00 to 10:10 77.83 78.14 78.94 76.91 76.85 75.13
5/22/2018 10:00 to 9:10 75.71 76.79 77.49 77.60 76.93 76.50
5/22/2018 09:00 to 8:10 77.27 77.25 76.54 77.51 78.38 76.17
5/22/2018 08:00 to 7:10 77.25 77.22 76.33 76.56 76.25 75.19
5/22/2018 07:00 to 6:10 77.47 77.45 78.18 76.87 75.77 78.28
5/22/2018 06:00 to 5:10 76.52 77.27 77.14 75.09 78.07 76.54
5/22/2018 05:00 to 4:10 77.60 75.98 77.29 74.74 77.47 77.31
5/22/2018 04:00 to 3:10 76.56 74.59 76.44 77.00 75.48 78.01
5/22/2018 03:00 to 2:10 77.62 77.74 78.07 78.84 79.67 77.31
5/22/2018 02:00 to 1:10 80.39 80.27 81.33 81.18 80.50 81.60
5/22/2018 01:00 to 0:10 79.38 78.57 80.91 79.54 81.28 80.60
5/22/2018 00:00 to 23:10 79.81 82.63 81.02 86.32 80.81 84.81
5/21/2018 23:00 to 22:10 81.86 80.41 81.33 81.35 83.92 85.41
5/21/2018 22:00 to 21:10 85.61 83.19 81.37 85.49 83.38 84.23
5/21/2018 21:00 to 20:10 90.86 92.78 92.74 93.49 93.09 90.44
5/21/2018 20:00 to 19:10 84.39 82.44 80.29 81.06 88.41 88.41
5/21/2018 19:00 to 18:10 88.04 87.27 87.54 85.55 86.77 87.38
5/21/2018 18:00 to 17:10 87.19 87.31 87.87 86.40 87.54 86.07
5/21/2018 17:00 to 16:10 85.01 84.45 84.47 85.39 85.90 85.24
5/21/2018 16:00 to 15:10 85.22 83.69 82.51 83.07 81.22 81.68
5/21/2018 15:00 to 14:10 78.38 77.20 78.90 75.71 84.62 81.80
5/21/2018 14:00 to 13:10 82.76 82.76 83.19 83.15 83.44 85.97
5/21/2018 13:00 to 12:10 86.80 87.85 89.38 87.77 86.92 84.58
5/21/2018 12:00 to 11:10 83.50 84.35 85.08 84.43 85.41 83.67
5/21/2018 11:00 to 10:10 82.90 83.98 84.70 84.66 85.24 85.63
5/21/2018 10:00 to 9:10 83.96 83.46 86.86 88.14 84.70 87.42
5/21/2018 09:00 to 8:10 86.24 84.64 82.40 83.54 86.26 82.15
5/21/2018 08:00 to 7:10 83.89 84.87 84.39 78.90 81.18 80.73
5/21/2018 07:00 to 6:10 79.57 80.83 81.60 82.03 81.37 82.24
5/21/2018 06:00 to 5:10 76.27 76.79 75.61 74.95 79.94 80.33
5/21/2018 05:00 to 4:10 83.96 85.84 81.18 77.89 81.60 79.59
5/21/2018 04:00 to 3:10 79.34 78.24 80.44 79.63 79.61 79.23
5/21/2018 03:00 to 2:10 80.56 79.98 82.05 82.03 81.84 81.24
5/21/2018 02:00 to 1:10 80.75 81.47 83.02 82.59 83.85 81.45
5/21/2018 01:00 to 0:10 83.60 84.79 82.84 86.26 82.84 81.53
5/21/2018 00:00 to 23:10 81.84 80.66 81.02 83.65 82.78 84.10
5/20/2018 23:00 to 22:10 89.24 85.32 83.27 83.40 83.73 82.94
5/20/2018 22:00 to 21:10 81.37 81.76 81.28 77.80 79.65 79.17
5/20/2018 21:00 to 20:10 78.88 79.11 78.26 77.35 76.44 78.63
5/20/2018 20:00 to 19:10 79.67 78.18 78.09 77.14 76.75 77.76
5/20/2018 19:00 to 18:10 77.58 77.22 77.22 78.96 78.59 78.09
5/20/2018 18:00 to 17:10 76.46 77.18 77.83 80.00 79.38 79.25
5/20/2018 17:00 to 16:10 79.40 79.65 77.51 76.58 78.14 77.99
5/20/2018 16:00 to 15:10 77.93 76.79 76.46 78.34 76.56 78.51
5/20/2018 15:00 to 14:10 77.10 78.22 76.98 76.50 79.01 77.25
5/20/2018 14:00 to 13:10 78.36 80.83 77.85 77.33 76.64 77.25
5/20/2018 13:00 to 12:10 78.74 77.35 76.48 75.13 76.17 74.39
5/20/2018 12:00 to 11:10 76.54 76.81 76.73 79.05 75.92 76.54
5/20/2018 11:00 to 10:10 77.06 77.43 74.53 74.59 77.04 77.68
5/20/2018 10:00 to 9:10 78.32 78.36 76.85 78.05 77.58 78.55
5/20/2018 09:00 to 8:10 76.46 77.29 79.17 79.67 79.92 80.85
5/20/2018 08:00 to 7:10 79.46 81.89 83.40 79.30 79.90 78.76
5/20/2018 07:00 to 6:10 80.00 80.70 82.34 80.41 78.70 80.12
5/20/2018 06:00 to 5:10 78.41 80.21 79.44 79.25 79.03 78.86
5/20/2018 05:00 to 4:10 77.27 76.77 78.18 77.89 76.67 75.57
5/20/2018 04:00 to 3:10 77.29 75.22 76.64 78.41 76.54 75.30
5/20/2018 03:00 to 2:10 74.47 74.30 74.88 71.94 74.63 75.32
5/20/2018 02:00 to 1:10 76.33 76.48 76.71 79.23 74.68 77.08
5/20/2018 01:00 to 0:10 77.00 75.86 74.80 77.14 76.42 77.91